Vorticity
11 11 9 8 6 3 2 3 3 7 13 23 37 44 28 31 18 15 22 26 24 22 17 17 17 24 31 29 23 14 10 9 8 9 7 6 8 6 10 10 9 10 9 7
6 4 5 7 13 22 38 39 40 25 10 9 8 5 13 17 21 5 -5 16 15 13 36 36 23 19 15 11 16 25 26 16 10 11 8 8 8 6 5 8 12 11 9 11
19 22 28 23 16 11 6 4 7 11 15 16 22 26 10 3 -8 -5 -5 7 12 29 40 31 36 33 36 27 20 10 16 25 22 9 10 7 5 7 5 5 9 11 14 8
8 8 7 5 5 1 5 11 16 15 12 11 7 9 9 3 3 15 23 1 8 -32 16 2 -1 12 9 33 35 25 25 20 21 23 12 9 6 6 7 9 8 9 7 14
15 10 8 7 11 14 16 10 7 3 8 8 18 24 24 26 26 22 10 15 7 11 8 10 14 -3 24 25 12 56 47 37 24 19 21 11 9 7 7 12 7 10 12 8
15 13 15 16 14 9 5 13 16 23 22 17 8 8 13 19 17 19 18 30 21 13 8 22 21 16 3 5 30 48 51 30 44 25 22 18 10 14 11 10 10 6 7 14
7 7 9 12 9 16 9 12 4 5 0 -1 3 25 34 30 24 17 23 23 27 28 17 21 31 28 19 26 11 38 42 37 14 30 30 19 10 11 12 10 8 7 8 15
6 7 11 10 13 6 7 4 -6 6 18 9 9 3 14 -4 4 14 11 28 17 16 5 20 26 30 29 27 46 46 33 29 30 36 20 18 8 9 15 15 12 14 15 17
9 10 12 10 10 6 1 10 12 12 19 16 9 -9 2 4 41 16 18 2 7 5 15 9 31 11 33 18 14 15 21 24 26 20 12 7 5 13 13 19 18 12 16 13
12 11 8 4 7 8 9 5 5 2 2 2 4 3 12 16 24 -17 21 31 12 56 -2 10 7 14 8 8 25 15 12 11 11 10 10 16 20 15 15 15 15 17 17 22
14 15 12 10 8 9 10 16 10 6 1 6 5 13 2 -4 -4 7 10 -11 -7 -1 41 41 31 -6 -14 12 8 13 26 25 28 27 30 27 23 32 29 26 12 4 -4 8
6 4 4 5 7 3 3 4 5 10 14 14 14 18 1 6 -1 -6 -5 8 23 -8 50 15 16 36 18 45 21 10 27 12 -3 0 2 14 -1 -8 -16 4 29 9 -4 3
4 4 5 3 6 6 8 8 7 6 6 6 8 7 5 9 12 15 -1 -1 2 11 -15 8 4 -2 1 0 -2 65 1 27 25 10 13 27 26 25 36 11 2 10 25 7
6 7 6 5 6 6 7 8 9 11 12 13 11 11 11 8 8 9 7 6 8 5 9 2 -3 -1 -1 3 0 -1 2 6 -2 -4 -5 -2 -7 -4 -3 -5 4 5 4 2
9 7 8 11 8 8 9 8 8 8 7 9 10 7 7 5 5 4 2 2 1 1 2 -0 -0 -1 3 4 4 2 3 8 3 4 9 7 6 6 6 5 3 3 4 4
7 9 8 10 11 11 10 9 8 5 6 4 4 5 7 6 1 -0 -2 1 1 1 1 3 2 -1 -1 0 8 4 2 3 1 1 0 1 2 5 5 4 5 7 6 7
8 8 9 9 7 7 10 7 8 9 8 7 8 4 4 4 3 2 3 3 2 3 5 5 1 1 6 2 -1 6 7 3 2 2 0 3 4 2 1 2 2 3 5 9
3 3 3 4 4 5 10 8 10 9 8 10 8 12 10 9 8 7 7 6 6 5 5 5 7 7 7 8 8 8 10 10 6 4 4 2 1 5 5 4 3 4 3 6
3 3 2 2 7 5 7 6 4 4 8 3 7 8 9 10 10 13 12 10 10 9 10 10 9 8 7 6 7 8 9 9 7 8 9 8 6 3 3 5 4 4 3 4
2 3 2 5 8 6 8 5 4 1 7 4 7 7 5 5 6 6 6 8 10 10 9 8 10 11 10 9 10 8 6 7 10 12 10 8 6 5 5 6 5 6 6 5
4 5 3 5 4 4 -4 3 4 3 5 4 5 4 3 4 5 4 5 4 5 4 4 6 9 9 8 8 7 7 8 7 5 6 9 10 10 10 9 8 8 7 9 10
5 4 5 5 6 5 2 3 5 3 4 4 7 9 8 7 5 8 8 8 8 5 6 7 7 5 2 1 1 1 4 4 4 9 11 10 7 7 7 7 7 7 7 7
12 10 10 4 8 10 10 10 13 8 8 9 9 9 11 10 11 12 13 12 10 10 10 8 7 5 5 5 5 6 5 7 7 7 7 6 6 10 14 14 10 8 6 6
17 15 12 16 16 17 38 13 18 13 13 12 11 11 6 10 18 16 7 9 11 10 8 10 16 16 17 14 11 11 12 12 14 13 9 6 9 6 10 18 19 23 18 14
14 -3 29 9 15 29 -13 9 18 14 14 16 11 15 21 8 5 3 3 3 3 7 6 6 5 1 6 6 8 9 10 11 10 10 13 12 11 10 13 15 19 17 13 11
14 8 9 -5 18 2 -7 12 1 -4 -1 -3 -6 2 6 -3 -1 4 3 2 2 4 6 4 5 10 10 4 9 9 -2 -0 3 -1 -4 -6 -4 1 -1 3 -6 7 16 18
Height
5734 5735 5736 5735 5734 5732 5730 5728 5725 5722 5719 5716 5710 5710 5702 5702 5697 5693 5689 5685 5680 5674 5669 5665 5664 5662 5662 5665 5669 5672 5678 5684 5691 5699 5707 5715 5723 5727 5731 5735 5741 5745 5750 5753
5733 5732 5731 5729 5727 5725 5723 5720 5717 5715 5711 5708 5704 5701 5697 5694 5690 5685 5681 5676 5668 5661 5653 5647 5644 5643 5642 5643 5645 5647 5653 5659 5670 5678 5687 5698 5706 5712 5717 5723 5728 5733 5737 5743
5728 5728 5726 5724 5723 5722 5719 5716 5713 5710 5707 5702 5699 5696 5692 5688 5684 5679 5672 5667 5661 5653 5644 5635 5631 5628 5627 5625 5624 5626 5630 5635 5645 5658 5669 5680 5689 5699 5707 5712 5717 5722 5727 5731
5726 5725 5724 5722 5721 5719 5717 5714 5710 5707 5705 5701 5698 5696 5687 5683 5676 5669 5662 5660 5654 5645 5637 5630 5624 5619 5613 5607 5603 5603 5606 5613 5624 5636 5649 5664 5678 5688 5695 5702 5707 5712 5717 5720
5726 5723 5722 5720 5719 5717 5714 5711 5709 5707 5703 5700 5695 5690 5683 5678 5671 5663 5656 5651 5645 5638 5630 5622 5615 5608 5601 5593 5586 5578 5579 5592 5605 5618 5634 5652 5666 5676 5684 5691 5697 5701 5706 5711
5724 5722 5721 5720 5717 5715 5714 5711 5708 5704 5701 5698 5693 5687 5682 5675 5668 5661 5652 5645 5639 5631 5623 5614 5606 5599 5591 5583 5573 5563 5563 5575 5590 5605 5623 5642 5656 5666 5675 5682 5688 5694 5698 5702
5723 5722 5720 5718 5717 5716 5714 5711 5709 5706 5701 5698 5692 5686 5679 5673 5665 5656 5648 5640 5634 5626 5619 5609 5599 5591 5586 5578 5570 5561 5562 5573 5588 5603 5618 5634 5649 5659 5667 5675 5681 5686 5689 5692
5724 5723 5721 5719 5719 5717 5715 5712 5709 5704 5700 5696 5693 5686 5681 5674 5666 5656 5648 5640 5633 5627 5618 5608 5598 5591 5583 5578 5572 5566 5570 5578 5590 5603 5617 5633 5644 5654 5660 5668 5673 5677 5680 5682
5725 5724 5723 5721 5719 5718 5715 5712 5709 5704 5700 5697 5692 5688 5682 5673 5665 5657 5647 5641 5636 5627 5619 5611 5604 5596 5589 5583 5579 5577 5581 5587 5597 5608 5621 5633 5642 5648 5654 5660 5664 5669 5673 5675
5726 5725 5723 5722 5720 5718 5715 5713 5710 5705 5701 5695 5692 5688 5683 5676 5668 5661 5654 5648 5640 5632 5622 5618 5612 5607 5601 5596 5592 5593 5596 5602 5609 5616 5624 5632 5638 5643 5649 5655 5659 5664 5668 5670
5727 5726 5726 5723 5721 5718 5715 5712 5709 5705 5702 5697 5693 5690 5685 5679 5674 5667 5661 5654 5647 5639 5629 5626 5622 5620 5616 5612 5609 5609 5609 5612 5616 5621 5627 5632 5637 5643 5648 5653 5657 5660 5662 5665
5730 5729 5726 5724 5721 5719 5715 5712 5709 5706 5703 5699 5695 5693 5687 5683 5678 5673 5667 5660 5655 5651 5644 5641 5637 5634 5629 5626 5623 5622 5622 5625 5627 5630 5632 5636 5640 5643 5648 5652 5650 5656 5657 5659
5733 5730 5728 5726 5724 5720 5717 5714 5710 5707 5704 5701 5697 5695 5690 5687 5682 5678 5673 5668 5663 5660 5655 5651 5648 5645 5642 5639 5636 5632 5633 5635 5635 5635 5638 5640 5642 5645 5647 5650 5653 5654 5655 5658
5733 5731 5729 5726 5723 5720 5717 5714 5711 5708 5705 5702 5699 5696 5692 5689 5685 5682 5678 5674 5671 5667 5664 5660 5657 5654 5651 5649 5648 5647 5645 5645 5646 5648 5648 5649 5651 5652 5654 5654 5655 5656 5657 5658
5734 5731 5728 5725 5722 5720 5717 5715 5711 5708 5705 5702 5699 5696 5693 5690 5687 5684 5681 5678 5675 5672 5669 5666 5665 5662 5660 5658 5656 5656 5655 5655 5654 5654 5654 5655 5655 5655 5655 5656 5656 5656 5656 5656
5734 5732 5729 5725 5722 5719 5716 5714 5711 5708 5705 5702 5700 5697 5694 5691 5689 5686 5684 5681 5678 5675 5673 5671 5668 5666 5664 5663 5662 5661 5659 5658 5657 5657 5657 5656 5656 5656 5655 5655 5655 5654 5653 5652
5734 5732 5730 5726 5723 5720 5718 5714 5711 5708 5705 5702 5699 5697 5693 5691 5688 5686 5683 5681 5678 5676 5674 5672 5670 5668 5666 5665 5663 5662 5660 5659 5658 5657 5656 5655 5655 5653 5652 5651 5649 5648 5647 5646
5734 5731 5728 5726 5722 5720 5716 5712 5710 5707 5704 5701 5698 5695 5692 5689 5686 5683 5681 5678 5676 5674 5671 5669 5667 5665 5664 5663 5661 5659 5658 5657 5656 5655 5653 5652 5651 5649 5647 5645 5643 5642 5639 5637
5731 5728 5726 5723 5721 5718 5715 5712 5709 5705 5703 5699 5696 5693 5690 5688 5685 5682 5678 5676 5673 5670 5668 5665 5663 5661 5659 5658 5656 5654 5653 5651 5650 5648 5647 5645 5643 5642 5640 5638 5635 5633 5630 5627
5727 5724 5722 5718 5716 5713 5711 5708 5705 5702 5700 5696 5693 5690 5687 5684 5681 5678 5674 5671 5669 5666 5664 5661 5659 5657 5655 5652 5650 5649 5647 5646 5644 5642 5640 5638 5635 5633 5631 5628 5625 5623 5620 5616
5722 5719 5717 5713 5710 5710 5706 5703 5699 5698 5697 5691 5689 5685 5682 5679 5676 5673 5671 5668 5665 5662 5660 5657 5654 5652 5649 5647 5645 5643 5640 5638 5636 5633 5630 5628 5625 5622 5619 5616 5613 5609 5606 5602
5715 5712 5710 5707 5705 5703 5699 5696 5694 5693 5688 5686 5683 5680 5678 5674 5671 5669 5666 5663 5660 5657 5654 5652 5649 5647 5644 5641 5639 5636 5633 5630 5627 5624 5621 5618 5614 5611 5607 5603 5599 5596 5592 5588
5704 5704 5700 5700 5701 5695 5689 5689 5688 5685 5682 5681 5679 5675 5672 5669 5665 5662 5660 5657 5654 5651 5648 5645 5642 5639 5637 5634 5631 5628 5624 5621 5617 5614 5611 5607 5603 5599 5595 5591 5587 5582 5577 5572
5700 5696 5693 5689 5694 5685 5682 5682 5679 5677 5676 5674 5672 5669 5666 5663 5660 5657 5654 5651 5648 5645 5642 5639 5636 5633 5630 5626 5623 5619 5615 5611 5607 5602 5598 5593 5589 5584 5578 5573 5568 5564 5559 5553
5695 5691 5686 5683 5683 5677 5677 5675 5672 5670 5668 5667 5664 5661 5659 5656 5653 5650 5648 5645 5642 5639 5636 5632 5629 5626 5622 5618 5614 5610 5605 5601 5597 5593 5588 5583 5577 5571 5565 5559 5552 5544 5538 5533
5688 5683 5679 5678 5674 5674 5673 5670 5668 5665 5662 5660 5658 5656 5653 5650 5648 5645 5642 5639 5636 5633 5629 5625 5621 5617 5613 5609 5604 5600 5597 5592 5587 5582 5577 5571 5565 5559 5552 5545 5536 5527 5517 5511